[[{"header":{"parameterUnit":"m.s-1","parameterCategory":1,"la1":30.2991,"la2":30.254,"lo1":-89.0895,"lo2":-89.0444,"dy":0.0017,"dx":0.0017,"nx":28,"ny":28,"refTime":"2025-08-04T09:00:00:Z","depth":0,"parameterNumber":2,"parameterNumberName":"U-component_of_WINDS"},"data":[0,0,0,0,0,0,0,0,0,0,0,0,0,0,0,0,0,0,0,0,0,0,0,0,0,0,0,0,0,0,0,0,0,0,0,0,0,0,0,0,0,0,0,0,0,0,0,0,0,0,0,0,0,0,0,0,0,0,0.6988,0.6987,0,0.693,0.6929,0.6929,0.691,0.691,0.691,0.691,0.6844,0.6842,0.684,0,0,0,0,0,0,0,0,0,0,0,0,0,0.7076,0.7074,0.6988,0.6987,0.6986,0.693,0.6929,0.6928,0.691,0.691,0.691,0.691,0.6845,0.6842,0.684,0,0,0,0,0,0,0,0,0,0,0,0,0,0.7029,0.7074,0.6988,0.697,0.6968,0.693,0.6929,0.6928,0.6909,0.691,0.691,0.6911,0.6846,0.6843,0.684,0.6813,0,0,0.683,0.6829,0,0,0,0,0,0,0,0,0.7032,0.7026,0.6974,0.6971,0.6969,0.6928,0.6936,0.6889,0.6909,0.6931,0.691,0.6911,0.6871,0.6866,0.6854,0.681,0.6807,0.683,0.6828,0.6827,0.6826,0,0,0,0,0,0,0,0.7035,0.7029,0.6965,0.6973,0.697,0.6963,0.6957,0.6927,0.6899,0.693,0.6928,0.6922,0.687,0.6857,0.6852,0.6806,0.683,0.6828,0.6826,0.6825,0.6736,0.6736,0,0,0,0,0,0,0.7042,0.7031,0.6966,0.6963,0.7002,0.6961,0.6955,0.694,0.69,0.6894,0.6922,0.6921,0.6862,0.6856,0.685,0.6815,0.6827,0.6824,0.6823,0.6737,0.6736,0.6735,0,0,0,0,0,0,0.7044,0.7037,0.6969,0.6997,0.6988,0.6959,0.6944,0.6939,0.6926,0.6894,0.6888,0.6914,0.6862,0.6854,0.6823,0.6813,0.6823,0.682,0.6737,0.6736,0.6736,0.6746,0,0,0,0,0,0,0.7047,0.7038,0.7029,0.6997,0.6986,0.6944,0.6943,0.6937,0.6922,0.6921,0.6885,0.688,0.6862,0.6827,0.682,0.6809,0.6818,0.6738,0.6737,0.6736,0.6747,0.6746,0.6746,0,0,0,0,0,0.705,0.7032,0.7028,0.702,0.6975,0.6944,0.6937,0.6919,0.6921,0.6911,0.689,0.6881,0.6816,0.6824,0.6815,0.6804,0.6738,0.6737,0.6736,0.6747,0.6746,0.6746,0,0,0,0,0,0,0.7061,0.7028,0.7023,0.6995,0.6973,0.6941,0.6927,0.6919,0.6894,0.6894,0.687,0.6862,0.6832,0.6815,0.6825,0.6775,0.6776,0.6773,0.6788,0.6787,0.6786,0.679,0.6815,0,0,0,0,0,0.7061,0.7041,0.7012,0.6989,0.6979,0.6955,0.6941,0.6929,0.6904,0.6894,0.6871,0.6845,0.6819,0.6802,0.6776,0.6745,0.6736,0.6732,0.6732,0.6731,0.6728,0.671,0.6707,0.6731,0.6731,0.6732,0,0,0.7058,0.7038,0.7026,0.6991,0.6973,0.695,0.6947,0.6924,0.6906,0.689,0.6859,0.6841,0.6811,0.678,0.6764,0.6764,0.672,0.673,0.673,0.6727,0.6708,0.6706,0.6704,0.6731,0.6731,0.6731,0,0,0.7043,0.7026,0.7006,0.6988,0.6961,0.6946,0.6941,0.6911,0.6899,0.6868,0.6856,0.6834,0.6789,0.6768,0.6751,0.673,0.6719,0.6722,0.6718,0.67,0.6698,0.6696,0.6687,0.6684,0.6719,0.6719,0.6719,0,0.7043,0.7011,0.6996,0.6974,0.6958,0.6945,0.6923,0.6906,0.687,0.6859,0.686,0.6804,0.6783,0.6746,0.6741,0.6728,0.672,0.6725,0.67,0.6698,0.6696,0.6687,0.6684,0.672,0.672,0.672,0.672,0,0.7012,0.699,0.6977,0.6946,0.6929,0.6907,0.6886,0.687,0.6861,0.6844,0.6813,0.6787,0.6756,0.6747,0.6735,0.6708,0.6708,0.6705,0.6705,0.6694,0.6685,0.6682,0.672,0.672,0.672,0.672,0,0,0.7,0.6963,0.6958,0.6944,0.6914,0.6895,0.6872,0.6844,0.683,0.6807,0.6786,0.6749,0.6746,0.6727,0.6714,0.6698,0.6682,0.6697,0.6695,0.6694,0.6648,0.665,0.6647,0.6676,0.6675,0.6675,0.665,0,0.698,0.6941,0.6927,0.6893,0.6872,0.686,0.684,0.6818,0.6802,0.678,0.6762,0.6737,0.6735,0.6724,0.6708,0.6687,0.6672,0.6689,0.6653,0.6652,0.666,0.6642,0.6644,0.6622,0.6647,0.6646,0.6646,0,0.6951,0.693,0.6895,0.6868,0.6859,0.6841,0.6814,0.6794,0.6769,0.6758,0.6739,0.6727,0.67,0.6704,0.6666,0.6678,0.6662,0.665,0.6649,0.6643,0.6647,0.6635,0.6615,0.6611,0.6641,0.6641,0.6641,0,0.6944,0.6907,0.6882,0.687,0.6838,0.6826,0.6811,0.6787,0.6771,0.6747,0.6736,0.6708,0.6692,0.667,0.6651,0.6655,0.6614,0.6616,0.6603,0.6603,0.6593,0.6594,0.6569,0.6586,0.6586,0.6586,0.6586,0,0.6922,0.6901,0.6878,0.6862,0.6838,0.6821,0.6797,0.6781,0.676,0.6739,0.6727,0.6707,0.6683,0.666,0.6644,0.6614,0.6608,0.6597,0.6593,0.6597,0.6598,0.6585,0.6586,0.6585,0.6585,0.6586,0.6586,0,0.691,0.6894,0.6865,0.6839,0.6831,0.6814,0.679,0.6773,0.6758,0.6732,0.6725,0.67,0.6672,0.6651,0.6614,0.6604,0.6572,0.6568,0.6581,0.6578,0.6566,0.6567,0.6531,0.6524,0.6547,0.6547,0.6547,0,0.6896,0.688,0.6853,0.6839,0.6826,0.6804,0.6788,0.6771,0.6755,0.6726,0.6712,0.6684,0.6661,0.6616,0.6593,0.6565,0.6559,0.6549,0.6555,0.656,0.6557,0.6558,0.6556,0.6547,0.6547,0.6547,0.6547,0,0.6873,0.6867,0.6846,0.6823,0.6805,0.6785,0.6765,0.6754,0.6733,0.6715,0.6688,0.667,0.6634,0.6605,0.6575,0.6558,0.6548,0.6546,0.6541,0.6544,0.6552,0.6546,0.6577,0.6546,0.6546,0.6546,0.6546,0.6546,0.6859,0.6844,0.6822,0.68,0.6783,0.6765,0.6748,0.6732,0.671,0.668,0.6671,0.6643,0.6617,0.6576,0.6559,0.6535,0.6534,0.6528,0.6526,0.6524,0.6524,0.6558,0.6529,0.6529,0.6529,0.6529,0.6529,0,0.6834,0.682,0.68,0.6773,0.6755,0.6751,0.6728,0.6712,0.6688,0.6667,0.6645,0.6613,0.6586,0.6562,0.6533,0.6519,0.6513,0.6511,0.6511,0.6507,0.6526,0.6533,0.6516,0.6516,0.6516,0.6516,0.6516,0.6516,0.6819,0.6793,0.6784,0.675,0.6735,0.6709,0.6697,0.6679,0.6662,0.6628,0.6607,0.6592,0.6569,0.6539,0.6513,0.6506,0.6495,0.6494,0.6486,0.6504,0.6506,0.6507,0.6513,0.6493,0.6493,0.6469,0.6469,0.6469]},{"header":{"parameterUnit":"m.s-1","parameterCategory":1,"la1":30.2991,"la2":30.254,"lo1":-89.0895,"lo2":-89.0444,"dy":0.0017,"dx":0.0017,"nx":28,"ny":28,"refTime":"2025-08-04T09:00:00:Z","depth":0,"parameterNumber":3,"parameterNumberName":"V-component_of_WINDS"},"data":[0,0,0,0,0,0,0,0,0,0,0,0,0,0,0,0,0,0,0,0,0,0,0,0,0,0,0,0,0,0,0,0,0,0,0,0,0,0,0,0,0,0,0,0,0,0,0,0,0,0,0,0,0,0,0,0,0,0,-2.7891,-2.7892,0,-2.7941,-2.7941,-2.7942,-2.79,-2.7898,-2.7896,-2.7895,-2.7942,-2.7945,-2.7947,0,0,0,0,0,0,0,0,0,0,0,0,0,-2.7757,-2.776,-2.7891,-2.7892,-2.7892,-2.794,-2.7941,-2.7942,-2.79,-2.7898,-2.7896,-2.7894,-2.7941,-2.7944,-2.7948,0,0,0,0,0,0,0,0,0,0,0,0,0,-2.7812,-2.7761,-2.7891,-2.7877,-2.7877,-2.794,-2.7941,-2.7942,-2.7901,-2.7898,-2.7895,-2.7893,-2.794,-2.7944,-2.7948,-2.8027,0,0,-2.7961,-2.7963,0,0,0,0,0,0,0,0,-2.7809,-2.7817,-2.7879,-2.7878,-2.7878,-2.7911,-2.7911,-2.797,-2.7901,-2.7891,-2.7895,-2.7892,-2.7934,-2.7938,-2.7953,-2.8029,-2.8031,-2.7962,-2.7964,-2.7966,-2.7967,0,0,0,0,0,0,0,-2.7805,-2.7814,-2.791,-2.788,-2.7879,-2.7868,-2.7873,-2.7922,-2.7926,-2.7892,-2.7889,-2.7896,-2.7933,-2.7949,-2.7954,-2.8031,-2.7961,-2.7965,-2.7968,-2.797,-2.8174,-2.8176,0,0,0,0,0,0,-2.7803,-2.7811,-2.7909,-2.7912,-2.7836,-2.7872,-2.7878,-2.7903,-2.7926,-2.7927,-2.7898,-2.7894,-2.7943,-2.7949,-2.7955,-2.8048,-2.7966,-2.797,-2.7973,-2.8171,-2.8174,-2.8177,0,0,0,0,0,0,-2.78,-2.7812,-2.7907,-2.7861,-2.7872,-2.7877,-2.7906,-2.7906,-2.7922,-2.793,-2.793,-2.7914,-2.7941,-2.7949,-2.8009,-2.8049,-2.7972,-2.7976,-2.8167,-2.8172,-2.8176,-2.8235,0,0,0,0,0,0,-2.7797,-2.7811,-2.7842,-2.7862,-2.7875,-2.7961,-2.7909,-2.7908,-2.793,-2.7925,-2.7945,-2.7946,-2.794,-2.8003,-2.8014,-2.8054,-2.7979,-2.8164,-2.8169,-2.8174,-2.823,-2.8241,-2.8251,0,0,0,0,0,-2.7792,-2.7856,-2.7844,-2.7856,-2.7914,-2.7964,-2.7971,-2.7963,-2.7933,-2.7963,-2.7969,-2.7946,-2.8044,-2.801,-2.8021,-2.8063,-2.8161,-2.8168,-2.8174,-2.8225,-2.8239,-2.825,0,0,0,0,0,0,-2.7839,-2.7858,-2.7845,-2.7918,-2.794,-2.7957,-2.7995,-2.7978,-2.8008,-2.8002,-2.799,-2.7995,-2.8058,-2.8067,-2.8029,-2.814,-2.8097,-2.8106,-2.8132,-2.8145,-2.8156,-2.8152,-2.7983,0,0,0,0,0,-2.7859,-2.7899,-2.7913,-2.7976,-2.7988,-2.799,-2.8011,-2.8003,-2.8025,-2.8034,-2.8043,-2.8064,-2.8099,-2.8123,-2.8156,-2.8231,-2.8234,-2.8266,-2.8276,-2.8285,-2.8292,-2.8332,-2.8346,-2.8198,-2.8198,-2.8198,0,0,-2.7898,-2.7913,-2.7939,-2.7986,-2.8002,-2.8043,-2.7997,-2.8043,-2.8073,-2.804,-2.8097,-2.8106,-2.8128,-2.8196,-2.8226,-2.8205,-2.8334,-2.8293,-2.83,-2.8303,-2.834,-2.8354,-2.8366,-2.8203,-2.8202,-2.8201,0,0,-2.7991,-2.8007,-2.8061,-2.8078,-2.8104,-2.8104,-2.8118,-2.8137,-2.8142,-2.82,-2.8176,-2.8211,-2.8272,-2.8289,-2.8306,-2.8406,-2.8385,-2.8417,-2.8471,-2.851,-2.8522,-2.8532,-2.8567,-2.858,-2.8425,-2.8425,-2.8425,0,-2.8036,-2.8098,-2.809,-2.8138,-2.8158,-2.8132,-2.8186,-2.8203,-2.8237,-2.8252,-2.8228,-2.8305,-2.8318,-2.8389,-2.8414,-2.8428,-2.8442,-2.8414,-2.8521,-2.8531,-2.8541,-2.8574,-2.8587,-2.8428,-2.8428,-2.8428,-2.8427,0,-2.8152,-2.8196,-2.8236,-2.8272,-2.8297,-2.8347,-2.8346,-2.8372,-2.8363,-2.8366,-2.8425,-2.844,-2.8476,-2.8492,-2.8482,-2.8562,-2.8548,-2.8523,-2.848,-2.8559,-2.8589,-2.8602,-2.8434,-2.8432,-2.8431,-2.843,0,0,-2.8276,-2.8307,-2.8322,-2.8337,-2.8364,-2.8396,-2.8445,-2.8481,-2.8504,-2.8528,-2.8568,-2.8622,-2.8599,-2.8618,-2.861,-2.8644,-2.8722,-2.8615,-2.8615,-2.8633,-2.8809,-2.8828,-2.8843,-2.8709,-2.8711,-2.8713,-2.8807,0,-2.8369,-2.8455,-2.845,-2.8531,-2.857,-2.8546,-2.8589,-2.8609,-2.8613,-2.8647,-2.8651,-2.8688,-2.8656,-2.8667,-2.87,-2.8705,-2.8757,-2.8698,-2.8744,-2.8746,-2.8739,-2.8859,-2.8878,-2.8967,-2.8819,-2.8822,-2.8823,0,-2.8489,-2.852,-2.8605,-2.8625,-2.8642,-2.868,-2.8713,-2.8745,-2.8767,-2.8768,-2.879,-2.8776,-2.8825,-2.8781,-2.8847,-2.8807,-2.8826,-2.8831,-2.8835,-2.8838,-2.8789,-2.8865,-2.8995,-2.9008,-2.8842,-2.8841,-2.8839,0,-2.857,-2.8632,-2.8691,-2.8705,-2.8731,-2.8758,-2.877,-2.8789,-2.8812,-2.884,-2.8854,-2.8887,-2.8905,-2.893,-2.8926,-2.8894,-2.8993,-2.8949,-2.8994,-2.8994,-2.9015,-2.9013,-2.9149,-2.9028,-2.9028,-2.9028,-2.9027,0,-2.8674,-2.8727,-2.8727,-2.8764,-2.8822,-2.8815,-2.8872,-2.888,-2.8898,-2.8935,-2.8916,-2.895,-2.8943,-2.8977,-2.8973,-2.9028,-2.9036,-2.9037,-2.9036,-2.9039,-2.9039,-2.905,-2.9043,-2.9031,-2.903,-2.903,-2.9029,0,-2.8774,-2.8776,-2.8839,-2.8858,-2.8865,-2.8907,-2.8923,-2.8956,-2.8959,-2.9006,-2.9016,-2.9021,-2.906,-2.9058,-2.9102,-2.91,-2.9167,-2.9158,-2.916,-2.9158,-2.9203,-2.9198,-2.935,-2.9369,-2.9236,-2.9238,-2.9239,0,-2.884,-2.888,-2.8905,-2.8928,-2.8942,-2.8981,-2.9003,-2.8998,-2.9022,-2.9051,-2.9081,-2.9118,-2.9148,-2.9211,-2.9218,-2.9251,-2.9243,-2.9294,-2.9248,-2.925,-2.9243,-2.924,-2.9244,-2.9303,-2.9304,-2.9305,-2.9306,0,-2.8957,-2.8957,-2.8991,-2.9026,-2.9054,-2.9081,-2.9105,-2.9126,-2.9122,-2.9151,-2.9191,-2.9214,-2.926,-2.9297,-2.9329,-2.934,-2.9322,-2.9321,-2.9333,-2.9336,-2.9335,-2.9336,-2.9184,-2.9317,-2.9316,-2.9315,-2.9315,-2.9314,-2.9041,-2.9076,-2.9099,-2.9138,-2.9156,-2.9179,-2.9212,-2.922,-2.9254,-2.9291,-2.9286,-2.9331,-2.9351,-2.9393,-2.9407,-2.9441,-2.9423,-2.9441,-2.9445,-2.9449,-2.9454,-2.9331,-2.9447,-2.9447,-2.9446,-2.9446,-2.9446,0,-2.9157,-2.9171,-2.9207,-2.9242,-2.9273,-2.9255,-2.9282,-2.9308,-2.9348,-2.9369,-2.94,-2.9446,-2.9482,-2.9492,-2.9526,-2.9552,-2.9545,-2.9561,-2.9559,-2.9561,-2.9469,-2.9454,-2.9566,-2.9566,-2.9566,-2.9566,-2.9566,-2.9566,-2.9221,-2.9278,-2.928,-2.9347,-2.9359,-2.9404,-2.9421,-2.9442,-2.9459,-2.9512,-2.9543,-2.9549,-2.9566,-2.9602,-2.9634,-2.9636,-2.9649,-2.9668,-2.9667,-2.958,-2.9568,-2.9556,-2.9543,-2.9671,-2.9672,-2.9757,-2.9757,-2.9758]}]]